PDT,Max TemperatureF,Mean TemperatureF,Min TemperatureF,Max Dew PointF,MeanDew PointF,Min DewpointF,Max Humidity, Mean Humidity, Min Humidity, Max Sea Level PressureIn, Mean Sea Level PressureIn, Min Sea Level PressureIn, Max VisibilityMiles, Mean VisibilityMiles, Min VisibilityMiles, Max Wind SpeedMPH, Mean Wind SpeedMPH, Max Gust SpeedMPH,PrecipitationIn, CloudCover, Events, WindDirDegrees
2012-10-1,103,77,50,43,37,29,71,39,7,30.04,29.97,29.88,10,9,4,14,0,18,0.00,0,,308
2012-10-2,102,77,51,43,38,31,66,38,9,29.93,29.87,29.79,10,10,10,14,1,20,0.00,0,,290
2012-10-3,99,74,49,51,40,32,68,40,11,29.95,29.86,29.81,10,10,10,12,1,16,0.00,0,,194
2012-10-4,82,67,51,54,52,49,93,65,36,30.11,30.05,29.96,10,10,10,10,5,14,0.00,2,,160
2012-10-5,76,63,50,51,49,46,89,65,41,30.15,30.10,30.04,10,10,10,13,2,18,0.00,2,,186
2012-10-6,75,66,57,52,50,48,77,61,44,30.06,30.01,29.94,10,10,10,13,3,17,0.00,4,,306
2012-10-7,80,63,45,51,47,43,93,63,32,30.03,29.97,29.88,10,10,8,14,1,21,0.00,1,,224
2012-10-8,71,57,42,48,44,40,89,65,40,30.04,30.01,29.97,10,10,10,9,1,14,0.00,0,,310
2012-10-9,75,60,45,48,45,43,93,63,33,30.03,29.98,29.91,10,10,10,10,1,13,0.00,1,,245
2012-10-10,80,64,47,50,47,45,86,58,30,29.97,29.91,29.81,10,10,10,10,1,14,T,1,Rain,47
2012-10-11,73,59,45,49,46,43,86,65,44,29.94,29.88,29.78,10,10,10,4,1,17,0.00,2,,83
2012-10-12,66,60,53,49,48,47,83,70,56,30.19,30.06,29.94,10,10,10,10,3,14,0.00,7,,352
2012-10-13,77,65,52,56,51,47,83,65,46,30.32,30.25,30.17,10,10,10,16,2,20,0.00,4,,324
2012-10-14,82,65,48,55,52,47,96,65,33,30.22,30.14,30.06,10,10,10,14,2,16,0.00,0,,354
2012-10-15,84,67,50,60,54,48,93,64,34,30.12,30.05,29.99,10,10,10,18,3,24,0.00,0,,342
2012-10-16,82,72,62,62,57,50,90,66,42,30.03,29.97,29.90,10,10,10,20,4,25,0.00,2,,335
2012-10-17,92,68,44,49,43,37,93,55,16,29.98,29.91,29.81,10,10,10,6,1,8,0.00,0,,280
2012-10-18,92,68,44,54,41,32,83,49,14,30.01,29.94,29.89,10,10,10,13,2,18,0.00,0,,150
2012-10-19,84,69,53,54,47,41,78,51,23,30.08,29.99,29.89,10,10,10,12,1,14,0.00,3,,327
2012-10-20,73,60,47,51,43,39,86,62,38,29.92,29.87,29.81,10,10,10,15,5,20,0.00,0,,336
2012-10-21,66,53,40,45,36,30,76,51,26,29.93,29.86,29.80,10,10,10,17,3,22,0.00,1,Rain,310
2012-10-22,58,54,49,49,45,39,93,76,59,29.91,29.80,29.69,10,9,2,16,4,21,0.66,7,Rain,185
2012-10-23,58,51,43,48,44,39,100,76,51,30.05,29.98,29.91,10,8,2,10,2,14,0.01,7,Rain,269
2012-10-24,57,53,48,48,47,45,93,83,72,30.21,30.11,29.99,10,9,2,13,2,15,0.25,8,Rain,329
2012-10-25,66,57,48,49,47,41,100,72,44,30.29,30.24,30.20,10,10,9,6,1,8,0.00,4,,296
2012-10-26,76,60,43,53,46,37,96,66,35,30.27,30.20,30.12,10,10,10,14,2,21,0.00,0,,333
2012-10-27,80,65,49,55,53,48,96,69,42,30.12,30.05,29.98,10,10,10,12,3,15,0.00,0,,297
2012-10-28,82,65,47,55,52,46,100,67,34,30.06,30.00,29.93,10,10,10,4,0,,0.00,0,,331
2012-10-29,79,66,52,56,53,51,93,68,43,30.14,30.08,30.02,10,10,10,7,2,9,0.00,4,,336
2012-10-30,75,62,48,55,51,46,100,73,46,30.09,30.04,29.93,10,6,0,8,1,10,0.00,3,Fog,166
2012-10-31,59,58,56,55,54,50,93,85,77,29.99,29.96,29.94,10,8,2,13,6,20,0.45,8,Rain,157